Total_Precipitation_Accumulation
1.49 1.37 1.37 1.27 1.08 1.08 1.01 0.98 0.98 0.98 1.00 1.02 1.07 1.09 1.09 1.08 0.87 0.55 0.55 0.38 0.25 0.15 0.15 0.13 0.17 0.22 0.22 0.29 0.39 0.39 0.42 0.46 0.33 0.35 0.35 0.39 0.36 0.31 0.31 0.26 0.23 0.16 0.16 0.18 0.21 0.21 0.25 0.38 0.48 0.48 0.48 0.49 0.52 0.53 0.53 0.40 0.25 0.20 0.20 0.24 0.09 0.13 0.13 0.20 0.25 0.25 0.24 0.35 0.39
1.47 1.35 1.35 1.27 1.27 1.27 1.20 1.18 1.14 1.14 1.16 1.14 1.13 1.19 1.19 1.23 1.22 1.10 1.10 0.82 0.60 0.37 0.37 0.20 0.18 0.19 0.19 0.22 0.25 0.25 0.27 0.22 0.22 0.22 0.22 0.23 0.24 0.29 0.29 0.32 0.28 0.15 0.15 0.15 0.16 0.16 0.15 0.14 0.25 0.25 0.33 0.37 0.42 0.48 0.48 0.50 0.46 0.31 0.31 0.15 0.14 0.04 0.04 0.04 0.03 0.03 0.05 0.09 0.23
1.02 1.14 1.14 1.23 1.33 1.33 1.42 1.45 1.39 1.39 1.35 1.29 1.29 1.39 1.39 1.49 1.43 1.38 1.38 1.29 1.10 0.91 0.91 0.47 0.31 0.18 0.18 0.15 0.16 0.16 0.16 0.17 0.17 0.17 0.17 0.14 0.16 0.19 0.19 0.25 0.29 0.18 0.18 0.12 0.09 0.09 0.07 0.08 0.23 0.23 0.27 0.27 0.29 0.33 0.33 0.38 0.48 0.54 0.54 0.33 0.30 0.12 0.12 0.05 0.01 0.01 0.02 0.07 0.07
0.89 0.94 0.94 1.19 1.26 1.26 1.46 1.55 1.55 1.55 1.45 1.46 1.44 1.50 1.50 1.58 1.63 1.58 1.58 1.52 1.54 1.49 1.49 1.05 0.66 0.39 0.39 0.22 0.54 0.54 0.24 0.20 0.18 0.15 0.15 0.14 0.11 0.11 0.11 0.14 0.19 0.20 0.20 0.13 0.08 0.08 0.06 0.10 0.19 0.19 0.35 0.33 0.33 0.30 0.30 0.21 0.29 0.37 0.37 0.18 0.24 0.31 0.31 0.11 0.04 0.04 0.04 0.04 0.02
0.85 0.88 0.88 1.03 1.13 1.13 1.21 1.35 1.46 1.46 1.61 1.52 1.46 1.45 1.45 1.46 1.46 1.43 1.43 1.48 1.56 1.63 1.63 1.40 1.24 1.06 1.06 1.38 1.18 1.18 0.70 0.50 0.35 0.24 0.24 0.19 0.10 0.08 0.08 0.09 0.13 0.16 0.16 0.16 0.11 0.11 0.08 0.19 0.28 0.28 0.46 0.47 0.47 0.36 0.36 0.21 0.29 0.24 0.24 0.41 0.40 0.43 0.43 0.43 0.16 0.16 0.08 0.05 0.09
0.82 0.82 0.82 0.79 0.83 0.83 0.99 1.19 1.33 1.33 1.47 1.46 1.49 1.47 1.47 1.44 1.31 1.33 1.33 1.35 1.34 1.32 1.32 1.52 1.53 1.48 1.48 1.46 1.40 1.40 0.99 0.86 0.69 0.49 0.49 0.32 0.24 0.23 0.23 0.22 0.20 0.21 0.21 0.23 0.17 0.17 0.42 0.53 0.68 0.68 0.62 0.56 0.49 0.33 0.33 0.29 0.39 0.43 0.43 0.55 0.45 0.40 0.40 0.39 0.22 0.22 0.18 0.16 0.23
0.94 0.91 0.91 0.68 0.66 0.66 0.79 0.95 1.06 1.06 1.14 1.15 1.23 1.31 1.31 1.29 1.06 1.03 1.03 1.03 1.03 1.05 1.05 1.32 1.23 1.36 1.36 1.43 1.43 1.43 1.32 1.02 0.93 0.77 0.77 0.54 0.37 0.31 0.31 0.32 0.32 0.36 0.36 0.40 0.42 0.42 0.64 0.74 0.88 0.88 0.78 0.62 0.58 0.45 0.45 0.45 0.56 0.66 0.66 0.58 0.45 0.38 0.38 0.32 0.20 0.20 0.15 0.18 0.18
1.15 1.11 1.11 0.83 0.68 0.68 0.63 0.68 0.82 0.82 0.98 1.06 1.15 1.17 1.17 1.17 1.07 0.94 0.94 0.84 0.88 1.03 1.03 1.05 1.12 1.19 1.19 1.23 1.28 1.28 1.28 0.98 0.92 0.81 0.81 0.71 0.51 0.29 0.29 0.26 0.30 0.39 0.39 0.47 0.66 0.66 0.76 0.92 0.99 0.99 0.97 0.88 0.70 0.56 0.56 0.54 0.63 0.81 0.81 0.59 0.46 0.45 0.45 0.39 0.27 0.27 0.22 0.18 0.17
0.87 0.80 0.80 0.91 0.88 0.88 0.82 0.66 0.59 0.59 0.70 0.84 1.03 1.17 1.17 1.23 1.34 1.26 1.26 1.13 0.93 0.90 0.90 0.93 1.01 1.07 1.07 1.06 1.02 1.02 0.95 0.82 0.75 0.66 0.66 0.56 0.52 0.43 0.43 0.48 0.47 0.40 0.40 0.42 0.54 0.54 0.75 0.97 1.08 1.08 1.08 1.09 0.90 0.66 0.66 0.57 0.69 1.05 1.05 0.88 0.64 0.54 0.54 0.59 0.58 0.58 0.54 0.59 0.37
0.69 0.65 0.65 0.60 0.56 0.56 0.52 0.78 0.70 0.70 0.63 0.67 0.73 0.78 0.78 0.83 0.83 0.82 0.82 0.76 0.70 0.71 0.71 0.75 0.90 0.99 0.99 0.96 0.91 0.91 0.85 0.69 0.66 0.63 0.63 0.57 0.54 0.54 0.54 0.54 0.51 0.47 0.47 0.50 0.66 0.66 0.85 0.98 1.00 1.00 1.00 1.07 1.15 1.04 1.04 1.09 1.33 1.33 1.33 1.16 0.99 0.72 0.72 0.71 0.75 0.75 0.65 0.78 0.62
0.49 0.48 0.48 0.49 0.48 0.48 0.41 0.38 0.38 0.38 0.35 0.36 0.40 0.46 0.46 0.52 0.68 0.70 0.70 0.64 0.59 0.55 0.55 0.58 0.64 0.72 0.72 0.83 0.88 0.88 0.86 0.81 0.70 0.67 0.67 0.65 0.62 0.57 0.57 0.58 0.60 0.57 0.57 0.59 0.58 0.58 0.62 0.70 0.68 0.68 0.69 0.75 0.85 0.96 0.96 1.17 0.89 1.09 1.09 1.05 1.01 0.87 0.87 0.77 0.80 0.80 0.88 0.82 0.72
0.41 0.34 0.34 0.34 0.38 0.38 0.36 0.33 0.34 0.34 0.26 0.25 0.28 0.28 0.28 0.34 0.42 0.65 0.65 0.63 0.54 0.47 0.47 0.45 0.49 0.57 0.57 0.64 0.67 0.67 0.69 0.71 0.74 0.75 0.75 0.74 0.72 0.70 0.70 0.62 0.54 0.56 0.56 0.43 0.43 0.43 0.42 0.40 0.36 0.36 0.34 0.31 0.34 0.42 0.42 0.66 0.37 0.49 0.49 0.63 0.73 0.81 0.81 0.77 0.82 0.82 0.87 0.89 0.93
0.36 0.28 0.28 0.25 0.23 0.23 0.24 0.24 0.25 0.25 0.22 0.21 0.23 0.23 0.23 0.23 0.25 0.45 0.45 0.52 0.47 0.41 0.41 0.35 0.34 0.42 0.42 0.47 0.48 0.48 0.49 0.51 0.56 0.64 0.64 0.70 0.70 0.67 0.67 0.60 0.45 0.33 0.33 0.29 0.31 0.31 0.34 0.34 0.28 0.28 0.22 0.17 0.19 0.22 0.22 0.22 0.23 0.27 0.27 0.35 0.44 0.55 0.55 0.63 0.72 0.72 0.72 0.89 0.96
0.28 0.24 0.24 0.20 0.16 0.16 0.14 0.15 0.14 0.14 0.14 0.16 0.17 0.17 0.17 0.16 0.15 0.27 0.27 0.35 0.34 0.32 0.32 0.31 0.32 0.41 0.41 0.53 0.61 0.61 0.58 0.49 0.45 0.55 0.55 0.58 0.58 0.56 0.56 0.52 0.37 0.35 0.35 0.26 0.24 0.24 0.28 0.30 0.28 0.28 0.24 0.18 0.16 0.19 0.19 0.22 0.26 0.20 0.20 0.20 0.22 0.28 0.28 0.35 0.44 0.44 0.48 0.63 0.69
0.15 0.17 0.17 0.16 0.13 0.13 0.11 0.09 0.08 0.08 0.09 0.10 0.09 0.11 0.11 0.12 0.12 0.16 0.16 0.21 0.20 0.15 0.15 0.14 0.15 0.28 0.28 0.46 0.57 0.57 0.57 0.52 0.49 0.41 0.41 0.44 0.48 0.51 0.51 0.53 0.43 0.45 0.45 0.37 0.30 0.30 0.26 0.26 0.25 0.25 0.23 0.22 0.20 0.19 0.19 0.24 0.27 0.31 0.31 0.28 0.22 0.18 0.18 0.19 0.24 0.24 0.25 0.38 0.43
0.06 0.08 0.08 0.08 0.08 0.08 0.08 0.07 0.06 0.06 0.05 0.05 0.05 0.06 0.06 0.08 0.09 0.13 0.13 0.15 0.16 0.13 0.13 0.11 0.10 0.17 0.17 0.33 0.41 0.41 0.41 0.37 0.35 0.32 0.32 0.30 0.29 0.30 0.30 0.24 0.24 0.30 0.30 0.32 0.30 0.30 0.28 0.25 0.23 0.23 0.22 0.20 0.20 0.20 0.20 0.20 0.22 0.25 0.25 0.32 0.31 0.27 0.27 0.24 0.23 0.23 0.26 0.26 0.26
0.01 0.02 0.02 0.03 0.04 0.04 0.04 0.04 0.03 0.03 0.02 0.03 0.03 0.04 0.04 0.05 0.06 0.10 0.10 0.12 0.14 0.15 0.15 0.14 0.13 0.13 0.13 0.14 0.18 0.18 0.21 0.22 0.22 0.23 0.23 0.25 0.26 0.24 0.24 0.22 0.22 0.22 0.22 0.21 0.21 0.21 0.21 0.20 0.19 0.19 0.24 0.25 0.23 0.19 0.19 0.18 0.17 0.17 0.17 0.20 0.28 0.30 0.30 0.29 0.27 0.27 0.27 0.25 0.26
0.01 0.01 0.01 0.00 0.00 0.00 0.00 0.00 0.00 0.00 0.00 0.00 0.01 0.02 0.02 0.03 0.07 0.10 0.10 0.11 0.14 0.16 0.16 0.15 0.15 0.16 0.16 0.17 0.15 0.15 0.14 0.13 0.11 0.10 0.10 0.14 0.16 0.10 0.10 0.11 0.11 0.12 0.12 0.15 0.14 0.14 0.14 0.13 0.13 0.13 0.13 0.13 0.13 0.11 0.11 0.12 0.13 0.13 0.13 0.12 0.11 0.10 0.10 0.13 0.11 0.11 0.13 0.18 0.23
0.01 0.00 0.00 0.00 0.00 0.00 0.00 0.00 0.00 0.00 0.00 0.00 0.00 0.00 0.00 0.01 0.03 0.07 0.07 0.09 0.13 0.15 0.15 0.15 0.15 0.17 0.17 0.19 0.17 0.17 0.14 0.13 0.10 0.08 0.08 0.07 0.04 0.04 0.04 0.05 0.06 0.08 0.08 0.11 0.10 0.10 0.11 0.12 0.13 0.13 0.14 0.14 0.17 0.16 0.16 0.13 0.12 0.11 0.11 0.11 0.12 0.11 0.11 0.10 0.09 0.09 0.10 0.12 0.16
0.00 0.00 0.00 0.00 0.00 0.00 0.00 0.00 0.00 0.00 0.00 0.00 0.00 0.00 0.00 0.01 0.03 0.05 0.05 0.08 0.10 0.11 0.11 0.11 0.14 0.17 0.17 0.20 0.19 0.19 0.16 0.16 0.15 0.12 0.12 0.18 0.10 0.07 0.07 0.05 0.04 0.04 0.04 0.06 0.07 0.07 0.07 0.08 0.10 0.10 0.13 0.15 0.15 0.16 0.16 0.18 0.16 0.14 0.14 0.12 0.11 0.10 0.10 0.11 0.11 0.11 0.12 0.13 0.16
0.00 0.00 0.00 0.00 0.00 0.00 0.00 0.00 0.00 0.00 0.00 0.00 0.00 0.00 0.00 0.00 0.00 0.02 0.02 0.05 0.05 0.06 0.06 0.07 0.07 0.10 0.10 0.13 0.16 0.16 0.16 0.15 0.15 0.18 0.18 0.17 0.18 0.17 0.17 0.14 0.11 0.09 0.09 0.08 0.08 0.08 0.07 0.08 0.08 0.08 0.09 0.11 0.11 0.11 0.11 0.12 0.15 0.15 0.15 0.15 0.13 0.11 0.11 0.11 0.12 0.12 0.13 0.15 0.16
0.00 0.00 0.00 0.00 0.00 0.00 0.00 0.00 0.00 0.00 0.00 0.00 0.00 0.00 0.00 0.00 0.00 0.00 0.00 0.01 0.02 0.04 0.04 0.04 0.04 0.04 0.04 0.06 0.12 0.12 0.15 0.19 0.21 0.12 0.12 0.12 0.11 0.15 0.15 0.19 0.18 0.16 0.16 0.14 0.12 0.12 0.10 0.13 0.13 0.13 0.12 0.09 0.07 0.07 0.07 0.08 0.08 0.09 0.09 0.10 0.10 0.11 0.11 0.09 0.10 0.10 0.12 0.13 0.15
0.00 0.00 0.00 0.00 0.00 0.00 0.00 0.00 0.00 0.00 0.00 0.00 0.00 0.00 0.00 0.00 0.00 0.00 0.00 0.00 0.01 0.01 0.01 0.02 0.03 0.04 0.04 0.06 0.08 0.08 0.10 0.11 0.06 0.07 0.07 0.07 0.08 0.07 0.07 0.06 0.06 0.07 0.07 0.09 0.12 0.12 0.14 0.14 0.12 0.12 0.14 0.12 0.10 0.08 0.08 0.08 0.08 0.08 0.08 0.06 0.06 0.07 0.07 0.07 0.08 0.08 0.09 0.10 0.11
0.00 0.00 0.00 0.00 0.00 0.00 0.00 0.00 0.00 0.00 0.00 0.00 0.00 0.00 0.00 0.00 0.00 0.00 0.00 0.00 0.00 0.00 0.00 0.01 0.02 0.03 0.03 0.04 0.06 0.06 0.06 0.06 0.05 0.05 0.05 0.05 0.05 0.04 0.04 0.05 0.05 0.04 0.04 0.03 0.05 0.05 0.07 0.11 0.14 0.14 0.15 0.15 0.12 0.10 0.10 0.09 0.09 0.09 0.09 0.09 0.07 0.10 0.10 0.10 0.10 0.10 0.10 0.10 0.10
0.00 0.00 0.00 0.00 0.00 0.00 0.00 0.00 0.00 0.00 0.00 0.00 0.00 0.00 0.00 0.00 0.00 0.00 0.00 0.00 0.00 0.00 0.00 0.00 0.00 0.02 0.02 0.03 0.03 0.03 0.03 0.04 0.05 0.05 0.05 0.05 0.05 0.05 0.05 0.05 0.03 0.03 0.03 0.03 0.03 0.03 0.05 0.08 0.11 0.11 0.08 0.11 0.11 0.09 0.09 0.08 0.09 0.09 0.09 0.10 0.11 0.12 0.12 0.14 0.16 0.16 0.17 0.15 0.13
0.00 0.00 0.00 0.00 0.00 0.00 0.00 0.00 0.00 0.00 0.00 0.00 0.00 0.00 0.00 0.00 0.00 0.00 0.00 0.00 0.00 0.00 0.00 0.00 0.00 0.00 0.00 0.01 0.00 0.00 0.01 0.02 0.03 0.04 0.04 0.05 0.04 0.04 0.04 0.04 0.03 0.03 0.03 0.02 0.02 0.02 0.03 0.05 0.04 0.04 0.06 0.09 0.10 0.08 0.08 0.07 0.05 0.06 0.06 0.07 0.07 0.08 0.08 0.11 0.14 0.14 0.17 0.19 0.19
0.00 0.00 0.00 0.00 0.00 0.00 0.00 0.00 0.00 0.00 0.00 0.00 0.00 0.00 0.00 0.00 0.00 0.00 0.00 0.00 0.00 0.00 0.00 0.00 0.00 0.00 0.00 0.00 0.00 0.00 0.00 0.01 0.02 0.02 0.02 0.03 0.04 0.04 0.04 0.03 0.03 0.02 0.02 0.02 0.03 0.03 0.03 0.04 0.04 0.04 0.04 0.05 0.08 0.09 0.09 0.09 0.09 0.09 0.09 0.07 0.09 0.10 0.10 0.11 0.10 0.10 0.13 0.16 0.18
0.00 0.00 0.00 0.00 0.00 0.00 0.00 0.00 0.00 0.00 0.00 0.00 0.00 0.00 0.00 0.00 0.00 0.00 0.00 0.00 0.00 0.00 0.00 0.00 0.00 0.01 0.01 0.01 0.00 0.00 0.00 0.00 0.00 0.01 0.01 0.02 0.02 0.03 0.03 0.03 0.03 0.02 0.02 0.01 0.02 0.02 0.04 0.07 0.07 0.07 0.05 0.06 0.07 0.08 0.08 0.08 0.08 0.09 0.09 0.10 0.09 0.09 0.09 0.10 0.11 0.11 0.15 0.17 0.19
0.00 0.00 0.00 0.00 0.00 0.00 0.00 0.00 0.00 0.00 0.00 0.00 0.00 0.00 0.00 0.00 0.00 0.00 0.00 0.00 0.00 0.01 0.01 0.01 0.01 0.01 0.01 0.01 0.01 0.01 0.01 0.00 0.00 0.00 0.00 0.01 0.02 0.02 0.02 0.02 0.03 0.02 0.02 0.02 0.02 0.02 0.04 0.08 0.10 0.10 0.08 0.07 0.08 0.09 0.09 0.09 0.08 0.07 0.07 0.08 0.07 0.09 0.09 0.11 0.12 0.12 0.13 0.14 0.17
0.00 0.00 0.00 0.00 0.00 0.00 0.00 0.00 0.00 0.00 0.00 0.00 0.00 0.00 0.00 0.00 0.00 0.00 0.00 0.00 0.01 0.01 0.01 0.01 0.01 0.01 0.01 0.01 0.01 0.01 0.01 0.01 0.01 0.01 0.01 0.01 0.01 0.01 0.01 0.02 0.02 0.02 0.02 0.02 0.03 0.03 0.05 0.09 0.12 0.12 0.10 0.09 0.09 0.09 0.09 0.09 0.08 0.08 0.08 0.08 0.08 0.09 0.09 0.11 0.12 0.12 0.12 0.11 0.11
0.00 0.00 0.00 0.00 0.00 0.00 0.00 0.00 0.00 0.00 0.00 0.00 0.00 0.00 0.00 0.00 0.00 0.00 0.00 0.01 0.01 0.01 0.01 0.01 0.01 0.01 0.01 0.01 0.01 0.01 0.01 0.01 0.01 0.01 0.01 0.01 0.01 0.01 0.01 0.01 0.01 0.02 0.02 0.02 0.02 0.02 0.04 0.07 0.09 0.09 0.08 0.08 0.09 0.09 0.09 0.10 0.10 0.09 0.09 0.10 0.10 0.10 0.10 0.10 0.11 0.11 0.11 0.10 0.09
0.00 0.00 0.00 0.00 0.00 0.00 0.00 0.00 0.00 0.00 0.00 0.00 0.00 0.00 0.00 0.00 0.00 0.00 0.00 0.00 0.01 0.01 0.01 0.01 0.01 0.01 0.01 0.01 0.01 0.01 0.01 0.01 0.01 0.01 0.01 0.01 0.01 0.01 0.01 0.01 0.01 0.01 0.01 0.02 0.01 0.01 0.01 0.03 0.04 0.04 0.05 0.06 0.08 0.09 0.09 0.10 0.10 0.11 0.11 0.12 0.11 0.10 0.10 0.10 0.10 0.10 0.09 0.09 0.08
0.00 0.00 0.00 0.00 0.00 0.00 0.00 0.00 0.00 0.00 0.00 0.00 0.00 0.00 0.00 0.00 0.00 0.00 0.00 0.00 0.00 0.01 0.01 0.01 0.01 0.01 0.01 0.01 0.01 0.01 0.01 0.01 0.01 0.01 0.01 0.01 0.01 0.01 0.01 0.01 0.01 0.01 0.01 0.01 0.01 0.01 0.01 0.01 0.02 0.02 0.03 0.05 0.07 0.07 0.07 0.09 0.11 0.12 0.12 0.13 0.12 0.11 0.11 0.08 0.07 0.07 0.07 0.07 0.06
0.00 0.00 0.00 0.00 0.00 0.00 0.00 0.00 0.00 0.00 0.00 0.00 0.00 0.00 0.00 0.00 0.00 0.00 0.00 0.00 0.00 0.01 0.01 0.01 0.01 0.01 0.01 0.01 0.01 0.01 0.01 0.01 0.01 0.01 0.01 0.01 0.01 0.01 0.01 0.01 0.01 0.01 0.01 0.01 0.01 0.01 0.01 0.01 0.01 0.01 0.02 0.03 0.05 0.07 0.07 0.09 0.10 0.09 0.09 0.10 0.09 0.09 0.09 0.07 0.07 0.07 0.06 0.06 0.06
0.00 0.00 0.00 0.00 0.00 0.00 0.00 0.00 0.00 0.00 0.00 0.00 0.00 0.00 0.00 0.00 0.00 0.00 0.00 0.00 0.00 0.00 0.00 0.00 0.01 0.01 0.01 0.01 0.01 0.01 0.01 0.01 0.01 0.01 0.01 0.01 0.01 0.01 0.01 0.01 0.01 0.01 0.01 0.01 0.01 0.01 0.01 0.02 0.02 0.02 0.03 0.04 0.05 0.07 0.07 0.08 0.09 0.07 0.07 0.07 0.07 0.07 0.07 0.08 0.09 0.09 0.07 0.06 0.07
0.00 0.00 0.00 0.00 0.00 0.00 0.00 0.00 0.00 0.00 0.00 0.00 0.00 0.00 0.00 0.00 0.00 0.00 0.00 0.00 0.00 0.00 0.00 0.00 0.00 0.01 0.01 0.01 0.00 0.00 0.00 0.01 0.01 0.01 0.01 0.00 0.01 0.01 0.01 0.01 0.01 0.00 0.00 0.00 0.01 0.01 0.01 0.01 0.02 0.02 0.02 0.04 0.05 0.06 0.06 0.07 0.06 0.05 0.05 0.06 0.06 0.06 0.06 0.07 0.09 0.09 0.09 0.10 0.09
0.00 0.00 0.00 0.00 0.00 0.00 0.00 0.00 0.00 0.00 0.00 0.00 0.00 0.00 0.00 0.00 0.00 0.00 0.00 0.00 0.00 0.00 0.00 0.00 0.00 0.00 0.00 0.00 0.00 0.00 0.01 0.00 0.00 0.01 0.01 0.00 0.01 0.01 0.01 0.01 0.01 0.00 0.00 0.00 0.00 0.00 0.01 0.01 0.02 0.02 0.03 0.04 0.05 0.05 0.05 0.05 0.05 0.05 0.05 0.05 0.05 0.05 0.05 0.05 0.07 0.07 0.08 0.08 0.10
0.00 0.00 0.00 0.00 0.00 0.00 0.00 0.00 0.00 0.00 0.00 0.00 0.00 0.00 0.00 0.00 0.00 0.00 0.00 0.00 0.00 0.00 0.00 0.00 0.00 0.00 0.00 0.00 0.00 0.00 0.00 0.00 0.00 0.01 0.01 0.01 0.01 0.01 0.01 0.01 0.01 0.00 0.00 0.00 0.00 0.00 0.01 0.01 0.02 0.02 0.03 0.04 0.05 0.05 0.05 0.06 0.05 0.05 0.05 0.05 0.05 0.04 0.04 0.04 0.05 0.05 0.06 0.06 0.08
0.00 0.00 0.00 0.00 0.00 0.00 0.00 0.00 0.00 0.00 0.00 0.00 0.00 0.00 0.00 0.00 0.00 0.00 0.00 0.00 0.00 0.00 0.00 0.01 0.00 0.00 0.00 0.00 0.00 0.00 0.00 0.00 0.00 0.00 0.00 0.01 0.01 0.01 0.01 0.01 0.01 0.01 0.01 0.00 0.00 0.00 0.00 0.01 0.02 0.02 0.02 0.04 0.05 0.05 0.05 0.06 0.06 0.05 0.05 0.05 0.05 0.04 0.04 0.04 0.04 0.04 0.05 0.05 0.06
0.00 0.00 0.00 0.00 0.00 0.00 0.00 0.00 0.00 0.00 0.00 0.00 0.00 0.00 0.00 0.00 0.00 0.00 0.00 0.00 0.00 0.00 0.00 0.01 0.01 0.01 0.01 0.01 0.01 0.01 0.01 0.00 0.00 0.00 0.00 0.00 0.00 0.00 0.00 0.01 0.01 0.01 0.01 0.00 0.00 0.00 0.00 0.01 0.01 0.01 0.02 0.03 0.05 0.06 0.06 0.06 0.06 0.06 0.06 0.05 0.05 0.05 0.05 0.04 0.04 0.04 0.05 0.06 0.06
0.00 0.00 0.00 0.00 0.00 0.00 0.00 0.00 0.00 0.00 0.00 0.00 0.00 0.00 0.00 0.00 0.00 0.00 0.00 0.00 0.00 0.00 0.00 0.01 0.01 0.01 0.01 0.01 0.01 0.01 0.01 0.01 0.00 0.00 0.00 0.00 0.00 0.01 0.01 0.01 0.01 0.01 0.01 0.00 0.00 0.00 0.00 0.00 0.01 0.01 0.01 0.03 0.04 0.05 0.05 0.07 0.07 0.07 0.07 0.06 0.05 0.06 0.06 0.05 0.05 0.05 0.07 0.07 0.05